NOAA 16 DEB, 41366

Orbit data source: Space-Track

NOAA 16 DEB, 41366 is space debris in SSO originally from a launch on Thu, 21 Sep 2000 UTC launched from the Air Force Western Test Range (AFWTR). Debris objects in space refer to the collection of defunct objects orbiting the Earth. Examples of debris include non-operational satellites, rocket bodies, and fragments generated from explosions, collisions, or faulty payload assembly.

Loading next visibility...
Identifier
41366, 2000-055JK
Orbit
SSO
Country
Flag of USUS
Related business
Manufacturer
Unknown
Mission
Spacecraft
Bus & Motor
Unknown
Mass
Unknown
Launch date (UTC)
2000-09-21 (26 years ago)
Launch vehicle
Unknown
Launch site
Air Force Western Test Range (AFWTR)
Object type
Payload
Rocket body
Debris
Shape & HBR
Unknown shape, 0.1 m
Radar Cross Section
Small (<0.1 m²)

Expand to show TLE details & history
Last TLE update: 20 hours ago

TLE from 20 hours ago
0 NOAA 16 DEB
1 41366U 00055JK  26257.56377314  .00007364  00000-0  22025-2 0  9991
2 41366  98.9391  19.5834 0022173 338.2094  21.8150 14.43051281546781
Epoch: 2026-09-14T13:31Z
TLE epoch observation values (Epoch: 2026-09-14T13:31:49.999Z)
Latitude
0.00006°
Longitude
-176.91721°
Altitude
736.705 km
Speed
7.494 km/s
True Right ascension
01h 18m 20s
True Declination
0° 00' 00"
Sunlit
Object was in full shadow at epoch
Visualization orbit readout
Latitude
Unknown
Longitude
Unknown
Altitude
Unknown
Speed
Unknown
Apparent Right ascension
Unknown
Apparent Declination
Unknown
Sunlit
N/A
Visualization observer readout
Local Sidereal Time
02:29:37
Azimuth
Unknown
Elevation
Unknown
Doppler factor
Unknown
Orbital elements
Apogee altitude
761.369 km
Perigee altitude
729.778 km
Semi-major axis
7,123.711 km
Eccentricity
0.00222
Inclination
98.9391°
RAAN
19.5834°
Arg. of periapsis
338.2094°
True anomaly
21.90966°
Mean anomaly
21.815°
Eccentric anomaly
21.86231°
Mean motion
3.60981 °/min
Orbital period
99.73 mins
BSTAR
0.0022025
Loading maneuver chart data...
Computing Atmospheric mass density...
Loading historical data...
Loading historical data...
Loading historical data...
Loading historical data...
Loading historical data...
Loading historical data...
Loading historical data...

Documentation

Showing up to 5 results
|